Weather History for KLOT - April, 2013

Change the Weather History Date:

Wednesday, April 10, 2013

  Actual Average Record
Temperature  
Mean Temperature 40 °F 48 °F  
Max Temperature 42 °F 59 °F 83 °F (2011)
Min Temperature 38 °F 38 °F 24 °F (1997)
Degree Days  
Heating Degree Days 25 17  
Month to date heating degree days 209 185  
Since 1 July heating degree days 5669 5730  
Cooling Degree Days 0 0  
Month to date cooling degree days 0 0  
Year to date cooling degree days 0 0  
Moisture  
Dew Point 39 °F    
Average Humidity 96    
Maximum Humidity 98    
Minimum Humidity 93    
Precipitation  
Precipitation 1.36 in 0.12 in 1.36 in (2013)
Month to date precipitation 2.33 1.12  
Year to date precipitation 10.41 7.60  
Snow  
Snow 0.00 in 0.00 in - ()
Month to date snowfall T 0.3  
Since 1 July snowfall 23.2 32.1  
Snow Depth 0.00 in    
Sea Level Pressure  
Sea Level Pressure 29.87 in    
Wind  
Wind Speed 16 mph (NE)    
Max Wind Speed 23 mph    
Max Gust Speed 36 mph    
Visibility 6 miles    
Events Rain , Thunderstorm    
T = Trace of Precipitation, MM = Missing Value Source: NWS Daily Summary

Daily Weather History Graph

Daily Weather History Graph

Search for Another Location

Airport or City:

Trip Planner

Search our weather history database for the weather conditions in past years. The results will help you decide how hot, cold, wet, or windy it might be!

Date:

Astronomy

Apr. 10, 2013 Rise Set
Actual Time 6:20 AM CDT 7:27 PM CDT
Civil Twilight 5:51 AM CDT 7:56 PM CDT
Nautical Twilight 5:17 AM CDT 8:30 PM CDT
Astronomical Twilight 4:42 AM CDT 9:06 PM CDT
Moon 6:15 AM CDT (4/10) 8:04 PM CDT (4/10)
Length of Visible Light 14h 04m
Length of Day
13h 07m
New Moon, 0% of the Moon is Illuminated
Apr 10
New Moon
Apr 18
First Quarter
Apr 25
Full
May 2
Last Quarter
May 9
New

Hourly Weather History & Observations

Time (CDT) Temp. Windchill Dew Point Humidity Pressure Visibility Wind Dir Wind Speed Gust Speed Precip Events Conditions
12:15 AM 42.1 °F 34.2 °F 40.5 °F 94% 29.91 in 7.0 mi NE 16.1 mph 19.6 mph N/A   Overcast
12:35 AM 42.1 °F 33.9 °F 40.5 °F 94% 29.91 in 7.0 mi ENE 17.3 mph - N/A   Overcast
12:55 AM 41.9 °F 33.7 °F 40.3 °F 94% 29.90 in 7.0 mi ENE 17.3 mph 21.9 mph N/A   Overcast
1:15 AM 41.5 °F 33.8 °F 40.1 °F 95% 29.89 in 7.0 mi ENE 15.0 mph 20.7 mph N/A   Overcast
1:35 AM 41.4 °F 34.0 °F 40.1 °F 95% 29.88 in 5.0 mi ENE 13.8 mph - N/A   Overcast
1:55 AM 41.9 °F 35.0 °F 40.5 °F 95% 29.88 in 5.0 mi ENE 12.7 mph 17.3 mph N/A   Overcast
2:15 AM 41.9 °F 34.6 °F 40.6 °F 95% 29.88 in 5.0 mi ENE 13.8 mph - N/A   Overcast
2:35 AM 41.9 °F 35.0 °F 40.6 °F 95% 29.88 in 4.0 mi NE 12.7 mph - N/A   Overcast
2:55 AM 42.1 °F 35.2 °F 41.0 °F 96% 29.87 in 5.0 mi ENE 12.7 mph - N/A   Overcast
3:15 AM 42.1 °F 34.9 °F 41.0 °F 96% 29.86 in 5.0 mi NE 13.8 mph - N/A   Overcast
3:35 AM 41.9 °F 33.4 °F 40.5 °F 95% 29.86 in 7.0 mi ENE 18.4 mph - N/A   Overcast
3:55 AM 42.1 °F 35.2 °F 40.6 °F 95% 29.87 in 7.0 mi NE 12.7 mph - N/A   Overcast
4:15 AM 41.9 °F 34.0 °F 40.3 °F 94% 29.87 in 7.0 mi NE 16.1 mph - N/A   Overcast
4:35 AM 41.7 °F 33.7 °F 40.3 °F 95% 29.86 in 10.0 mi NE 16.1 mph 20.7 mph N/A   Overcast
4:55 AM 41.0 °F 33.5 °F 39.6 °F 95% 29.86 in 10.0 mi ENE 13.8 mph - N/A   Overcast
5:15 AM 40.3 °F 31.6 °F 38.8 °F 95% 29.85 in 7.0 mi ENE 17.3 mph 24.2 mph N/A   Overcast
5:35 AM 40.1 °F 31.3 °F 38.7 °F 95% 29.84 in 7.0 mi ENE 17.3 mph 20.7 mph N/A   Overcast
5:55 AM 39.7 °F 31.2 °F 38.5 °F 95% 29.85 in 7.0 mi ENE 16.1 mph 24.2 mph N/A   Overcast
6:15 AM 39.7 °F 30.0 °F 38.5 °F 95% 29.91 in 7.0 mi North 20.7 mph 29.9 mph N/A   Overcast
6:35 AM 39.2 °F 29.3 °F 37.8 °F 95% 29.89 in 5.0 mi NNE 20.7 mph 26.5 mph N/A Thunderstorm Overcast
6:55 AM 38.7 °F 29.1 °F 37.8 °F 97% 29.91 in 3.0 mi NNE 18.4 mph 23.0 mph N/A Rain , Thunderstorm Light Thunderstorms and Rain
7:15 AM 38.5 °F 28.3 °F 37.6 °F 97% 29.91 in 2.0 mi NNE 20.7 mph 27.6 mph N/A Rain , Thunderstorm Light Thunderstorms and Rain
7:35 AM 38.3 °F 27.8 °F 37.4 °F 97% 29.93 in 2.5 mi North 21.9 mph 32.2 mph N/A Thunderstorm Overcast
7:55 AM 38.3 °F 27.6 °F 37.4 °F 97% 29.89 in 2.0 mi ENE 23.0 mph 29.9 mph N/A Rain , Thunderstorm Light Thunderstorms and Rain
8:15 AM 38.8 °F 30.4 °F 37.4 °F 95% 29.91 in 3.0 mi ENE 15.0 mph 23.0 mph N/A Rain , Thunderstorm Heavy Thunderstorms and Rain
8:35 AM 38.5 °F 28.1 °F 37.4 °F 96% 29.86 in 2.0 mi East 21.9 mph 26.5 mph N/A Rain , Thunderstorm Heavy Thunderstorms and Rain
8:55 AM 39.2 °F 31.2 °F 38.3 °F 97% 29.85 in 10.0 mi East 13.8 mph - N/A Thunderstorm Thunderstorm
9:15 AM 40.1 °F 33.6 °F 39.2 °F 97% 29.86 in 10.0 mi East 10.4 mph - N/A Thunderstorm Overcast
9:35 AM 40.3 °F 33.9 °F 39.2 °F 96% 29.85 in 10.0 mi East 10.4 mph 16.1 mph N/A   Overcast
9:55 AM 40.5 °F 33.6 °F 39.4 °F 96% 29.90 in 10.0 mi North 11.5 mph - N/A Rain , Thunderstorm Light Thunderstorms and Rain
10:15 AM 41.0 °F 38.0 °F 39.9 °F 96% 29.91 in 10.0 mi ESE 4.6 mph - N/A Rain , Thunderstorm Rain
10:35 AM 41.0 °F 36.4 °F 39.7 °F 95% 29.89 in 10.0 mi ENE 6.9 mph - N/A Rain Light Rain
10:55 AM 41.0 °F 34.3 °F 40.1 °F 97% 29.90 in 7.0 mi NNE 11.5 mph - N/A Rain Light Rain
11:15 AM 41.4 °F 35.7 °F 40.5 °F 97% 29.91 in 10.0 mi North 9.2 mph - N/A Rain Light Rain
11:35 AM 41.5 °F 35.4 °F 40.1 °F 95% 29.88 in 10.0 mi NE 10.4 mph - N/A   Overcast
11:55 AM 42.1 °F 34.5 °F 40.6 °F 95% 29.92 in 10.0 mi North 15.0 mph - N/A   Light Drizzle
12:15 PM 42.1 °F 32.6 °F 40.6 °F 95% 29.84 in 10.0 mi NE 23.0 mph 28.8 mph N/A Thunderstorm Overcast
12:35 PM 41.2 °F 36.0 °F 39.9 °F 95% 29.89 in 10.0 mi ENE 8.1 mph 17.3 mph N/A   Overcast
12:55 PM 41.2 °F 35.5 °F 40.1 °F 96% 29.95 in 10.0 mi NE 9.2 mph 13.8 mph N/A   Overcast
1:15 PM 40.6 °F 34.3 °F 39.4 °F 95% 29.94 in 7.0 mi NE 10.4 mph - N/A Rain Light Rain
1:35 PM 40.3 °F 33.0 °F 39.4 °F 97% 29.94 in 5.0 mi NNE 12.7 mph - N/A Rain Light Rain
1:55 PM 40.5 °F 32.8 °F 39.4 °F 96% 29.97 in 5.0 mi NNE 13.8 mph - N/A Rain Light Rain
2:15 PM 39.4 °F 29.0 °F 38.5 °F 97% 29.89 in 3.0 mi NNE 23.0 mph 27.6 mph N/A Rain Light Rain
2:35 PM 41.0 °F 31.6 °F 39.2 °F 93% 29.87 in 5.0 mi NE 20.7 mph 33.4 mph N/A   Light Drizzle
2:55 PM 40.3 °F 32.6 °F 39.2 °F 96% 29.90 in 10.0 mi ENE 13.8 mph 25.3 mph N/A   Overcast
3:15 PM 40.6 °F 32.7 °F 39.2 °F 95% 29.92 in 10.0 mi NNE 15.0 mph - N/A   Overcast
3:35 PM 40.6 °F 32.7 °F 39.2 °F 95% 29.93 in 10.0 mi NE 15.0 mph 18.4 mph N/A   Overcast
3:55 PM 40.8 °F 33.3 °F 39.2 °F 94% 29.95 in 10.0 mi ENE 13.8 mph - N/A   Overcast
4:15 PM 40.8 °F 32.6 °F 39.2 °F 94% 29.92 in 7.0 mi NE 16.1 mph - N/A Rain Light Rain
4:35 PM 40.6 °F 31.2 °F 39.2 °F 95% 29.92 in 7.0 mi NE 20.7 mph 24.2 mph N/A   Overcast
4:55 PM 40.5 °F 31.8 °F 39.2 °F 95% 29.92 in 7.0 mi ENE 17.3 mph 24.2 mph N/A Rain Light Rain
5:15 PM 40.1 °F 30.7 °F 38.8 °F 95% 29.82 in 5.0 mi ENE 19.6 mph 33.4 mph N/A   Drizzle
5:35 PM 40.3 °F 30.2 °F 39.2 °F 96% 29.83 in 5.0 mi ENE 23.0 mph 35.7 mph N/A   Overcast
5:55 PM 40.6 °F 30.9 °F 39.6 °F 96% 29.85 in 5.0 mi ENE 21.9 mph 33.4 mph N/A   Overcast
6:15 PM 40.5 °F 31.8 °F 39.4 °F 96% 29.88 in 7.0 mi ENE 17.3 mph 21.9 mph N/A   Overcast
6:35 PM 40.5 °F 31.8 °F 39.4 °F 96% 29.85 in 5.0 mi ENE 17.3 mph 21.9 mph N/A   Overcast
6:55 PM 40.5 °F 30.9 °F 39.4 °F 96% 29.81 in 4.0 mi ENE 20.7 mph 24.2 mph N/A   Overcast
7:15 PM 40.5 °F 31.5 °F 39.4 °F 96% 29.84 in 5.0 mi East 18.4 mph 25.3 mph N/A   Overcast
7:35 PM 40.6 °F 32.7 °F 39.6 °F 96% 29.84 in 5.0 mi ENE 15.0 mph 19.6 mph N/A   Overcast
7:55 PM 40.6 °F 31.2 °F 39.6 °F 96% 29.79 in 5.0 mi NE 20.7 mph 25.3 mph N/A   Overcast
8:15 PM 40.8 °F 32.0 °F 39.7 °F 96% 29.80 in 5.0 mi ENE 18.4 mph 26.5 mph N/A   Overcast
8:35 PM 40.6 °F 32.0 °F 39.9 °F 97% 29.81 in 4.0 mi ENE 17.3 mph 24.2 mph N/A   Overcast
8:55 PM 40.8 °F 32.9 °F 40.1 °F 97% 29.81 in 4.0 mi ENE 15.0 mph - N/A   Overcast
9:15 PM 40.8 °F 32.6 °F 40.1 °F 97% 29.83 in 4.0 mi ENE 16.1 mph 20.7 mph N/A   Overcast
9:35 PM 40.6 °F 32.3 °F 40.1 °F 98% 29.84 in 4.0 mi NE 16.1 mph - N/A Thunderstorm Overcast
9:55 PM 40.8 °F 32.0 °F 40.1 °F 97% 29.81 in 5.0 mi ENE 18.4 mph - N/A Rain , Thunderstorm Light Thunderstorms and Rain
10:15 PM 40.5 °F 30.9 °F 39.7 °F 97% 29.82 in 1.0 mi ENE 20.7 mph 29.9 mph N/A Rain Light Rain
10:35 PM 40.6 °F 33.8 °F 39.7 °F 97% 29.84 in 5.0 mi NE 11.5 mph 26.5 mph N/A Rain , Thunderstorm Thunderstorms and Rain
10:55 PM 40.5 °F 30.7 °F 39.4 °F 96% 29.81 in 3.0 mi NE 21.9 mph 28.8 mph N/A   Overcast
11:15 PM 40.1 °F 30.2 °F 39.2 °F 97% 29.80 in 1.8 mi NE 21.9 mph 29.9 mph N/A   Unknown
11:35 PM 40.1 °F 30.2 °F 39.0 °F 96% 29.82 in 2.5 mi NE 21.9 mph 28.8 mph N/A Rain , Thunderstorm Light Thunderstorms and Rain
11:55 PM 39.7 °F 30.3 °F 38.7 °F 96% 29.83 in 2.0 mi NNE 19.6 mph 27.6 mph N/A   Unknown